Weather History for Spokane Fairchild, WA

Change the Weather History Date:

Friday, January 4, 2013

  Actual Average Record
Temperature  
Mean Temperature 21 °F -  
Max Temperature 25 °F 31 °F 49 °F (2012)
Min Temperature 17 °F 22 °F -13 °F (2004)
Degree Days  
Heating Degree Days 44    
Moisture  
Dew Point 22 °F    
Average Humidity 100    
Maximum Humidity 100    
Minimum Humidity 100    
Precipitation  
Precipitation 0.00 in - - ()
Snow  
Snow 0.00 in - - ()
Snow Depth 7.00 in    
Sea Level Pressure  
Sea Level Pressure 30.35 in    
Wind  
Wind Speed 5 mph (NE)    
Max Wind Speed 9 mph    
Max Gust Speed -    
Visibility 10 miles    
Events Snow    
Averages and records for this station are not official NWS values.
T = Trace of Precipitation, MM = Missing Value Source: NWS Daily Summary

Daily Weather History Graph

Daily Weather History Graph

Search for Another Location

Airport:

Trip Planner

Search our weather history database for the weather conditions in past years. The results will help you decide how hot, cold, wet, or windy it might be!

Date:

Astronomy

Jan. 04, 2013 Rise Set
Actual Time 7:38 AM PST 4:13 PM PST
Civil Twilight 7:02 AM PST 4:48 PM PST
Nautical Twilight 6:24 AM PST 5:27 PM PST
Astronomical Twilight 5:46 AM PST 6:05 PM PST
Moon No Moon Rise 10:50 AM PST (1/4)
Length of Visible Light 9h 45m
Length of Day
8h 34m
Waning Gibbous, 54% of the Moon is Illuminated
Jan 4
Waning Gibbous
Jan 4
Last Quarter
Jan 11
New
Jan 18
First Quarter
Jan 26
Full

Hourly Weather History & Observations

Time (PST) Temp. Windchill Dew Point Humidity Pressure Visibility Wind Dir Wind Speed Gust Speed Precip Events Conditions
12:27 AM 17.6 °F 9.3 °F 17.6 °F 100% 30.30 in 10.0 mi SSE 5.8 mph - N/A   Overcast
12:41 AM 17.6 °F 8.2 °F 17.6 °F 100% 30.29 in 10.0 mi SSE 6.9 mph - N/A Snow Light Snow
12:55 AM 17.6 °F 9.3 °F 17.6 °F 100% 30.29 in 10.0 mi SSE 5.8 mph - N/A   Overcast
12:56 AM 17.6 °F 9.3 °F 17.6 °F 100% 30.29 in 10.0 mi SSE 5.8 mph - N/A Snow Light Snow
12:58 AM 17.6 °F - 17.6 °F 100% 30.40 in 10.0 mi North - - 0.00 in Snow Light Snow
1:16 AM 17.6 °F - 17.6 °F 100% 30.30 in 10.0 mi SE 2.3 mph - N/A   Overcast
1:58 AM 18.1 °F - 18.1 °F 100% 30.43 in 10.0 mi North - - 0.00 in   Overcast
2:06 AM 17.6 °F - 17.6 °F 100% 30.29 in 10.0 mi North - - N/A Snow Light Snow
2:18 AM 17.6 °F - 17.6 °F 100% 30.29 in 10.0 mi North - - N/A   Overcast
2:22 AM 17.6 °F - 17.6 °F 100% 30.29 in 10.0 mi North - - N/A Snow Light Snow
2:40 AM 19.4 °F - 19.4 °F 100% 30.30 in 10.0 mi North - - N/A   Overcast
2:58 AM 18.9 °F - 18.9 °F 100% 30.42 in 10.0 mi North - - 0.00 in   Overcast
3:58 AM 19.2 °F - 19.2 °F 100% 30.42 in 10.0 mi North - - N/A   Overcast
4:24 AM 19.4 °F - 19.4 °F 100% 30.29 in 10.0 mi North - - N/A Snow Light Snow
4:38 AM 19.4 °F - 19.4 °F 100% 30.29 in 10.0 mi North - - N/A   Overcast
4:53 AM 19.4 °F - 19.4 °F 100% 30.29 in 10.0 mi North - - N/A Snow Light Snow
4:58 AM 19.4 °F - 19.4 °F 100% 30.43 in 10.0 mi North - - 0.00 in Snow Light Snow
5:03 AM 19.4 °F - 19.4 °F 100% 30.30 in 10.0 mi North - - N/A   Overcast
5:45 AM 19.4 °F - 19.4 °F 100% 30.29 in 10.0 mi North - - N/A Snow Light Snow
5:58 AM 19.8 °F - 19.8 °F 100% 30.42 in 10.0 mi Calm Calm - N/A   Overcast
6:08 AM 19.4 °F - 19.4 °F 100% 30.30 in 10.0 mi North - - N/A   Overcast
6:18 AM 19.4 °F - 19.4 °F 100% 30.30 in 10.0 mi Calm Calm - N/A   Overcast
6:33 AM 19.4 °F - 19.4 °F 100% 30.30 in 10.0 mi East 2.3 mph - N/A   Overcast
6:58 AM 20.1 °F - 20.1 °F 100% 30.43 in 10.0 mi North - - 0.00 in   Overcast
7:01 AM 19.4 °F - 19.4 °F 100% 30.29 in 10.0 mi ENE 2.3 mph - N/A Snow Light Snow
7:48 AM 21.2 °F - 21.2 °F 100% 30.30 in 10.0 mi North - - N/A   Overcast
7:58 AM 20.5 °F - 20.5 °F 100% 30.43 in 10.0 mi NNE 2.3 mph - 0.00 in   Overcast
8:58 AM 21.2 °F - 21.2 °F 100% 30.43 in 10.0 mi ENE 2.3 mph - N/A   Overcast
9:58 AM 21.2 °F - 21.2 °F 100% 30.43 in 10.0 mi ENE 2.3 mph - N/A   Overcast
10:58 AM 21.2 °F - 21.2 °F 100% 30.43 in 10.0 mi Calm Calm - N/A   Overcast
11:20 AM 23.0 °F 15.8 °F 23.0 °F 100% 30.33 in - NE 5.8 mph - N/A   Unknown
11:50 AM 23.0 °F - 23.0 °F 100% 30.33 in 10.0 mi NE 2.3 mph - N/A   Overcast
11:58 AM 23.5 °F - 23.5 °F 100% 30.45 in 10.0 mi NE 2.3 mph - N/A   Overcast
12:31 PM 23.0 °F - 23.0 °F 100% 30.32 in 10.0 mi East 1.2 mph - N/A   Overcast
12:53 PM 23.0 °F - 23.0 °F 100% 30.31 in 10.0 mi East 1.2 mph - N/A   Overcast
12:58 PM 23.7 °F - 23.7 °F 100% 30.43 in 10.0 mi ENE 2.3 mph - 0.00 in   Overcast
1:08 PM 24.8 °F - 24.8 °F 100% 30.31 in 10.0 mi Calm Calm - N/A   Light Freezing Rain
1:17 PM 24.8 °F - 24.8 °F 100% 30.31 in 10.0 mi ENE 1.2 mph - N/A   Overcast
1:58 PM 24.8 °F - 24.8 °F 100% 30.43 in 10.0 mi NE 1.2 mph - 0.00 in   Overcast
2:58 PM 25.3 °F 19.7 °F 25.3 °F 100% 30.43 in 10.0 mi NNE 4.6 mph - N/A   Overcast
3:43 PM 24.8 °F 19.1 °F 24.8 °F 100% 30.32 in 10.0 mi NNE 4.6 mph - N/A   Overcast
3:58 PM 25.2 °F 19.5 °F 25.2 °F 100% 30.43 in 10.0 mi NE 4.6 mph - N/A   Overcast
4:23 PM 24.8 °F 19.1 °F 24.8 °F 100% 30.32 in 10.0 mi NNE 4.6 mph - N/A   Overcast
4:33 PM 24.8 °F 19.1 °F 24.8 °F 100% 30.32 in 10.0 mi NE 4.6 mph - N/A   Overcast
4:58 PM 24.8 °F 17.9 °F 24.8 °F 100% 30.43 in 10.0 mi NNE 5.8 mph - N/A   Overcast
5:38 PM 24.8 °F 19.1 °F 24.8 °F 100% 30.31 in 10.0 mi NE 4.6 mph - N/A   Overcast
5:48 PM 24.8 °F 19.1 °F 24.8 °F 100% 30.32 in 10.0 mi NNE 4.6 mph - N/A   Overcast
5:58 PM 24.6 °F 18.8 °F 24.6 °F 100% 30.42 in 10.0 mi NNE 4.6 mph - N/A   Overcast
6:58 PM 24.4 °F 17.5 °F 24.4 °F 100% 30.42 in 10.0 mi NNE 5.8 mph - N/A   Overcast
7:08 PM 24.8 °F 17.9 °F 24.8 °F 100% 30.31 in 10.0 mi NNE 5.8 mph - N/A   Overcast
7:38 PM 24.8 °F 19.1 °F 24.8 °F 100% 30.31 in 10.0 mi North 4.6 mph - N/A   Overcast
7:58 PM 24.4 °F 17.5 °F 24.4 °F 100% 30.42 in 10.0 mi NNE 5.8 mph - N/A   Overcast
8:26 PM 24.8 °F 15.3 °F 24.8 °F 100% 30.31 in 10.0 mi NNE 9.2 mph - N/A   Overcast
8:41 PM 24.8 °F 15.3 °F 24.8 °F 100% 30.32 in 10.0 mi North 9.2 mph - N/A   Overcast
8:46 PM 24.8 °F 15.3 °F 24.8 °F 100% 30.32 in 10.0 mi North 9.2 mph - N/A   Overcast
8:51 PM 24.8 °F 15.3 °F 24.8 °F 100% 30.32 in 10.0 mi North 9.2 mph - N/A   Overcast
8:58 PM 24.8 °F 16.1 °F 24.8 °F 100% 30.43 in 10.0 mi North 8.1 mph - N/A   Overcast
9:16 PM 24.8 °F 16.1 °F 24.8 °F 100% 30.32 in 10.0 mi North 8.1 mph - N/A   Overcast
9:21 PM 24.8 °F 16.1 °F 24.8 °F 100% 30.32 in 10.0 mi NNE 8.1 mph - N/A   Overcast
9:26 PM 24.8 °F 16.1 °F 24.8 °F 100% 30.32 in 10.0 mi NNE 8.1 mph - N/A   Overcast
9:36 PM 24.8 °F 16.1 °F 24.8 °F 100% 30.32 in 10.0 mi NNE 8.1 mph - N/A   Overcast
9:51 PM 24.8 °F 16.1 °F 24.8 °F 100% 30.32 in 10.0 mi NNE 8.1 mph - N/A   Overcast
9:56 PM 24.8 °F 16.1 °F 24.8 °F 100% 30.32 in 10.0 mi NNE 8.1 mph - N/A   Overcast
9:58 PM 25.3 °F 17.6 °F 25.3 °F 100% 30.43 in 10.0 mi NNE 6.9 mph - N/A   Overcast
10:28 PM 24.8 °F 17.9 °F 24.8 °F 100% 30.33 in 10.0 mi NNE 5.8 mph - N/A   Overcast
10:58 PM 25.5 °F 16.9 °F 25.5 °F 100% 30.44 in 10.0 mi NNE 8.1 mph - N/A   Overcast
11:03 PM 24.8 °F 16.9 °F 24.8 °F 100% 30.32 in 10.0 mi NE 6.9 mph - N/A   Overcast
11:58 PM 25.9 °F 19.2 °F 25.9 °F 100% 30.43 in 10.0 mi NNE 5.8 mph - N/A   Overcast